sat.trackr.live / text

‹ back to catalog

STARLINK-30985

NORAD 58493 · 2023-186W

PAYLOAD ACTIVE UNKNOWN

§ Identity

Operator
Country
US
Launch date
2023-12-03
Launch site
AFETR
Launch vehicle
Mass (kg)
RCS (m²)

Purposes: comms

External: N2YO · Heavens-Above · Gunter

§ Orbital elements

Epoch: 2026-09-20T09:01:56.730720Z

Period
94.27 min
Inclination
43.0058°
Eccentricity
0.0002258
Mean motion
15.27557242 rev/d
Perigee alt
481.6 km
Apogee alt
484.7 km
Semi-major
6,861.3 km
B*
-3.7356e-5
RAAN
43.9315°
Arg perigee
262.2608°
Mean anomaly
97.7987°
Rev number
15,566

§ Raw data

STARLINK-309851 58493U 23186W   26263.37635105 -.00001290  00000+0 -37356-4 0  99992 58493  43.0058  43.9315 0002258 262.2608  97.7987 15.27557242155669

JSON: /api/v1/satellites/58493 · /tle

For live sub-satellite position, see the globe view (requires WebGL).

§ Visibility from observer

Set your observer location to see the next 7 days of passes ≥ 10°. The values pass through the URL so the page stays shareable.

No JS? Fill the form by hand. The geolocation button needs JavaScript.